ZHONGXING-10

Last updated on Wed Sep 09 2026 00:02:59 GMT+0000 (Coordinated Universal Time)

1 37677U 11026A 26251.46197990 -.00000208 00000+0 00000+0 0 9990 2 37677 1.2551 83.0766 0002868 70.4066 85.8069 1.00268186 55832
UTC large
Height (km)
Speed (km/s)
/
Latitude / Longitude
Inclination (degrees)
Orbital Period (minutes)
Azimuth
Elevation
Range (km)
Doppler Factor

Next 0 passes for location: London (51.5072 / 0.1276)

No passes found over London.
ZHONGXING-10